Location: Roanoke
(37.2710°N, 79.9420°W)
Time: 21:30:45
(UTC-05:00)

Transit 2A - Pass Details

Date: 22 November 2019
Orbit: 602 x 957 km, 66.7° (Epoch: 07 December)

Event Time Altitude Azimuth Distance (km) Brightness Sun altitude
Rises 11:50:34 0° 223° (SW) 3,235 9.8 32.4°
Reaches altitude 10° 11:53:10 10° 230° (SW) 2,252 9.0 32.5°
Maximum altitude 11:58:00 43° 301° (WNW) 973 6.7 32.5°
Drops below altitude 10° 12:02:27 10° 14° (NNE) 2,067 7.8 32.6°
Sets 12:04:45 0° 21° (NNE) 2,941 8.5 32.6°
